Change the Weather History Date:

Tuesday, April 30, 2013

  Actual Average Record
Temperature  
Mean Temperature 64 °F 63 °F  
Max Temperature 80 °F 76 °F 88 °F (2012)
Min Temperature 48 °F 50 °F 35 °F (2008)
Degree Days  
Heating Degree Days 1 3  
Month to date heating degree days 190 197  
Since 1 July heating degree days 218 3224  
Cooling Degree Days 0 1  
Month to date cooling degree days 26 21  
Year to date cooling degree days 26 25  
Growing Degree Days 13 (Base 50)    
Moisture  
Dew Point 56 °F    
Average Humidity 72    
Maximum Humidity 100    
Minimum Humidity 43    
Precipitation  
Precipitation 0.00 in 0.14 in 3.10 in (1963)
Month to date precipitation 4.97 3.91  
Year to date precipitation 5.55 18.13  
Snow  
Snow 0.00 in - - ()
Month to date snowfall 0.0  
Since 1 July snowfall 0.0  
Snow Depth 0.00 in    
Sea Level Pressure  
Sea Level Pressure 30.02 in    
Wind  
Wind Speed 3 mph (East)    
Max Wind Speed 10 mph    
Max Gust Speed 13 mph    
Visibility 6 miles    
Events Fog    
T = Trace of Precipitation, MM = Missing Value Source: NWS Daily Summary

Daily Weather History Graph

Daily Weather History Graph

Search for Another Location

Airport or City:

Trip Planner

Search our weather history database for the weather conditions in past years. The results will help you decide how hot, cold, wet, or windy it might be!

Date:

Astronomy

Apr. 30, 2013 Rise Set
Actual Time 6:50 AM EDT 8:22 PM EDT
Civil Twilight 6:24 AM EDT 8:49 PM EDT
Nautical Twilight 5:52 AM EDT 9:21 PM EDT
Astronomical Twilight 5:18 AM EDT 9:55 PM EDT
Moon 12:42 AM EDT (4/30) 11:21 AM EDT (4/30)
Length of Visible Light 14h 25m
Length of Day
13h 32m
Waning Gibbous, 70% of the Moon is Illuminated
Apr 30
Waning Gibbous
May 2
Last Quarter
May 9
New
May 18
First Quarter
May 25
Full

Hourly Weather History & Observations

Time (EDT) Temp. Dew Point Humidity Pressure Visibility Wind Dir Wind Speed Gust Speed Precip Events Conditions
12:53 AM 52.0 °F 52.0 °F 100% 29.97 in 9.0 mi Calm Calm - N/A   Clear
1:53 AM 50.0 °F 50.0 °F 100% 29.96 in 6.0 mi Calm Calm - N/A   Clear
2:53 AM 50.0 °F 50.0 °F 100% 29.95 in 6.0 mi Calm Calm - N/A   Clear
3:53 AM 48.9 °F 48.9 °F 100% 29.96 in 6.0 mi Calm Calm - N/A   Clear
4:53 AM 48.9 °F 48.9 °F 100% 29.97 in 5.0 mi Calm Calm - N/A   Clear
5:13 AM 48.2 °F 48.2 °F 100% 30.00 in 5.0 mi Calm Calm - N/A   Partly Cloudy
5:33 AM 48.2 °F 48.2 °F 100% 30.00 in 5.0 mi Calm Calm - N/A   Mostly Cloudy
5:53 AM 50.0 °F 48.9 °F 96% 29.98 in 7.0 mi Calm Calm - N/A   Overcast
6:06 AM 51.8 °F 51.8 °F 100% 30.00 in 8.0 mi Calm Calm - N/A   Overcast
6:19 AM 51.8 °F 51.8 °F 100% 30.01 in 1.8 mi Calm Calm - N/A   Overcast
6:28 AM 53.6 °F 53.6 °F 100% 30.02 in 0.5 mi Calm Calm - N/A Fog Fog
6:36 AM 53.6 °F 53.6 °F 100% 30.02 in 0.2 mi Calm Calm - N/A Fog Fog
6:53 AM 54.0 °F 54.0 °F 100% 30.00 in 0.2 mi Calm Calm - N/A Fog Fog
7:31 AM 55.4 °F 55.4 °F 100% 30.04 in 1.0 mi Calm Calm - N/A   Mist
7:39 AM 55.4 °F 55.4 °F 100% 30.04 in 3.0 mi Calm Calm - N/A   Overcast
7:53 AM 55.9 °F 55.9 °F 100% 30.02 in 3.0 mi Calm Calm - N/A   Overcast
8:06 AM 55.4 °F 55.4 °F 100% 30.05 in 2.0 mi Calm Calm - N/A   Overcast
8:13 AM 55.4 °F 55.4 °F 100% 30.05 in 1.2 mi Calm Calm - N/A   Overcast
8:33 AM 57.2 °F 57.2 °F 100% 30.05 in 0.8 mi Calm Calm - N/A   Overcast
8:53 AM 57.9 °F 57.9 °F 100% 30.04 in 0.8 mi Calm Calm - N/A   Overcast
9:13 AM 59.0 °F 59.0 °F 100% 30.06 in 1.0 mi NNE 3.5 mph - 0.01 in   Overcast
9:46 AM 60.8 °F 60.8 °F 100% 30.07 in 2.0 mi ENE 3.5 mph - 0.01 in   Overcast
9:53 AM 60.1 °F 60.1 °F 100% 30.05 in 2.5 mi ENE 3.5 mph - 0.01 in   Overcast
10:00 AM 60.8 °F 60.8 °F 100% 30.07 in 3.0 mi ENE 3.5 mph - N/A   Overcast
10:21 AM 62.6 °F 60.8 °F 94% 30.07 in 5.0 mi East 4.6 mph - N/A   Overcast
10:51 AM 64.4 °F 60.8 °F 88% 30.07 in 8.0 mi East 4.6 mph - N/A   Overcast
10:53 AM 64.0 °F 61.0 °F 90% 30.05 in 8.0 mi ESE 5.8 mph - N/A   Overcast
11:46 AM 68.0 °F 60.8 °F 78% 30.07 in 9.0 mi East 4.6 mph - N/A   Scattered Clouds
11:53 AM 70.0 °F 62.1 °F 76% 30.05 in 9.0 mi Variable 5.8 mph - N/A   Partly Cloudy
12:53 PM 73.0 °F 61.0 °F 66% 30.02 in 10.0 mi NE 6.9 mph - N/A   Partly Cloudy
1:53 PM 75.0 °F 55.9 °F 51% 30.01 in 10.0 mi Variable 4.6 mph - N/A   Scattered Clouds
2:53 PM 77.0 °F 54.0 °F 45% 30.00 in 10.0 mi East 3.5 mph - N/A   Scattered Clouds
3:53 PM 77.0 °F 57.9 °F 52% 30.00 in 10.0 mi East 5.8 mph - N/A   Mostly Cloudy
4:53 PM 77.0 °F 55.9 °F 48% 29.98 in 10.0 mi Variable 3.5 mph - N/A   Partly Cloudy
5:53 PM 78.1 °F 57.0 °F 48% 29.98 in 10.0 mi Variable 3.5 mph - N/A   Clear
6:53 PM 77.0 °F 57.0 °F 50% 29.98 in 10.0 mi East 3.5 mph - N/A   Clear
7:53 PM 73.0 °F 57.9 °F 59% 29.99 in 10.0 mi Calm Calm - N/A   Mostly Cloudy
9:53 PM 66.9 °F 57.9 °F 73% 30.03 in 10.0 mi SE 4.6 mph - N/A   Clear
10:53 PM 64.0 °F 57.9 °F 80% 30.05 in 10.0 mi SE 3.5 mph - N/A   Clear